����������;��������(kWh)
2016-11-21 00:00;72
2016-11-21 00:15;72,65
2016-11-21 00:30;70,4
2016-11-21 00:45;71,45
2016-11-21 01:00;72,85
2016-11-21 01:15;71,05
2016-11-21 01:30;71,4
2016-11-21 01:45;72,8
2016-11-21 02:00;70,65
2016-11-21 02:15;69,75
2016-11-21 02:30;71,3
2016-11-21 02:45;70,25
2016-11-21 03:00;69,6
2016-11-21 03:15;71,1
2016-11-21 03:30;71,2
2016-11-21 03:45;70,25
2016-11-21 04:00;70,8
2016-11-21 04:15;70,75
2016-11-21 04:30;70,9
2016-11-21 04:45;69,25
2016-11-21 05:00;69,05
2016-11-21 05:15;70,9
2016-11-21 05:30;70,65
2016-11-21 05:45;69,5
2016-11-21 06:00;74,65
2016-11-21 06:15;75,1
2016-11-21 06:30;73,85
2016-11-21 06:45;74
2016-11-21 07:00;73,4
2016-11-21 07:15;68,25
2016-11-21 07:30;65,75
2016-11-21 07:45;63,65
2016-11-21 08:00;65,25
2016-11-21 08:15;63,7
2016-11-21 08:30;66
2016-11-21 08:45;76,8
2016-11-21 09:00;81,1
2016-11-21 09:15;79,2
2016-11-21 09:30;74,75
2016-11-21 09:45;72,65
2016-11-21 10:00;71,6
2016-11-21 10:15;72,25
2016-11-21 10:30;73,35
2016-11-21 10:45;78,25
2016-11-21 11:00;76,95
2016-11-21 11:15;82,55
2016-11-21 11:30;81,85
2016-11-21 11:45;86,7
2016-11-21 12:00;88,55
2016-11-21 12:15;89,7
2016-11-21 12:30;85
2016-11-21 12:45;79,05
2016-11-21 13:00;79,7
2016-11-21 13:15;78,05
2016-11-21 13:30;78,2
2016-11-21 13:45;77,9
2016-11-21 14:00;77,7
2016-11-21 14:15;77,7
2016-11-21 14:30;77,25
2016-11-21 14:45;77,5
2016-11-21 15:00;80,5
2016-11-21 15:15;82,8
2016-11-21 15:30;81,65
2016-11-21 15:45;84,55
2016-11-21 16:00;78,4
2016-11-21 16:15;78,85
2016-11-21 16:30;81,15
2016-11-21 16:45;79,9
2016-11-21 17:00;80,85
2016-11-21 17:15;86,3
2016-11-21 17:30;90
2016-11-21 17:45;98,45
2016-11-21 18:00;99,6
2016-11-21 18:15;98,55
2016-11-21 18:30;97,95
2016-11-21 18:45;98,6
2016-11-21 19:00;92,4
2016-11-21 19:15;86,5
2016-11-21 19:30;87,45
2016-11-21 19:45;92,15
2016-11-21 20:00;88,95
2016-11-21 20:15;89,05
2016-11-21 20:30;89,25
2016-11-21 20:45;88,25
2016-11-21 21:00;83,05
2016-11-21 21:15;89,7
2016-11-21 21:30;84,75
2016-11-21 21:45;79,9
2016-11-21 22:00;79,95
2016-11-21 22:15;84,9
2016-11-21 22:30;82,95
2016-11-21 22:45;82,7
2016-11-21 23:00;81,9
2016-11-21 23:15;76,45
2016-11-21 23:30;77,7
2016-11-21 23:45;80,95
2016-11-22 00:00;81,2
2016-11-22 00:15;80,6
2016-11-22 00:30;83,4
2016-11-22 00:45;76,35
2016-11-22 01:00;74,1
2016-11-22 01:15;74,25
2016-11-22 01:30;73,45
2016-11-22 01:45;73,45
2016-11-22 02:00;75,3
2016-11-22 02:15;74,4
2016-11-22 02:30;73,75
2016-11-22 02:45;75,7
2016-11-22 03:00;73,15
2016-11-22 03:15;74,1
2016-11-22 03:30;74,35
2016-11-22 03:45;75,75
2016-11-22 04:00;74,35
2016-11-22 04:15;74,85
2016-11-22 04:30;73,25
2016-11-22 04:45;73,35
2016-11-22 05:00;74,6
2016-11-22 05:15;76,55
2016-11-22 05:30;74,8
2016-11-22 05:45;75,85
2016-11-22 06:00;80,95
2016-11-22 06:15;81,5
2016-11-22 06:30;84,35
2016-11-22 06:45;83
2016-11-22 07:00;86,3
2016-11-22 07:15;81,05
2016-11-22 07:30;84,85
2016-11-22 07:45;92,9
2016-11-22 08:00;94,8
2016-11-22 08:15;93,9
2016-11-22 08:30;109,65
2016-11-22 08:45;121,2
2016-11-22 09:00;125,35
2016-11-22 09:15;143,15
2016-11-22 09:30;165,6
2016-11-22 09:45;172,6
2016-11-22 10:00;181,85
2016-11-22 10:15;188,4
2016-11-22 10:30;191,45
2016-11-22 10:45;197,6
2016-11-22 11:00;207,8
2016-11-22 11:15;217,7
2016-11-22 11:30;215,7
2016-11-22 11:45;212,9
2016-11-22 12:00;209,7
2016-11-22 12:15;206,25
2016-11-22 12:30;205,8
2016-11-22 12:45;205,85
2016-11-22 13:00;201,75
2016-11-22 13:15;205,1
2016-11-22 13:30;205,7
2016-11-22 13:45;203,15
2016-11-22 14:00;205,9
2016-11-22 14:15;201,75
2016-11-22 14:30;199,6
2016-11-22 14:45;196,35
2016-11-22 15:00;193,35
2016-11-22 15:15;182,7
2016-11-22 15:30;177,15
2016-11-22 15:45;176,4
2016-11-22 16:00;170,25
2016-11-22 16:15;157,95
2016-11-22 16:30;160,8
2016-11-22 16:45;156,25
2016-11-22 17:00;148,45
2016-11-22 17:15;152,8
2016-11-22 17:30;153,45
2016-11-22 17:45;154,6
2016-11-22 18:00;158,5
2016-11-22 18:15;153,35
2016-11-22 18:30;147,9
2016-11-22 18:45;150,45
2016-11-22 19:00;150,75
2016-11-22 19:15;140,45
2016-11-22 19:30;138,9
2016-11-22 19:45;125,5
2016-11-22 20:00;120,3
2016-11-22 20:15;113,75
2016-11-22 20:30;111,85
2016-11-22 20:45;108,75
2016-11-22 21:00;104,75
2016-11-22 21:15;105,4
2016-11-22 21:30;104,6
2016-11-22 21:45;96,8
2016-11-22 22:00;92
2016-11-22 22:15;93
2016-11-22 22:30;92
2016-11-22 22:45;88,4
2016-11-22 23:00;89,8
2016-11-22 23:15;81,4
2016-11-22 23:30;81,15
2016-11-22 23:45;81
2016-11-23 00:00;80,5
2016-11-23 00:15;78,35
2016-11-23 00:30;79,25
2016-11-23 00:45;79,05
2016-11-23 01:00;81,95
2016-11-23 01:15;84,55
2016-11-23 01:30;83,4
2016-11-23 01:45;84,5
2016-11-23 02:00;84,45
2016-11-23 02:15;85,8
2016-11-23 02:30;78,85
2016-11-23 02:45;75,5
2016-11-23 03:00;77,15
2016-11-23 03:15;76,6
2016-11-23 03:30;75,55
2016-11-23 03:45;77,35
2016-11-23 04:00;76,55
2016-11-23 04:15;75,9
2016-11-23 04:30;76,5
2016-11-23 04:45;77,45
2016-11-23 05:00;75,9
2016-11-23 05:15;78,15
2016-11-23 05:30;79,6
2016-11-23 05:45;77,45
2016-11-23 06:00;81,8
2016-11-23 06:15;82,1
2016-11-23 06:30;87,4
2016-11-23 06:45;85,4
2016-11-23 07:00;87,85
2016-11-23 07:15;83,6
2016-11-23 07:30;84,5
2016-11-23 07:45;90,2
2016-11-23 08:00;94,5
2016-11-23 08:15;92,3
2016-11-23 08:30;105,7
2016-11-23 08:45;116,3
2016-11-23 09:00;121,05
2016-11-23 09:15;123,1
2016-11-23 09:30;125
2016-11-23 09:45;134,75
2016-11-23 10:00;135,35
2016-11-23 10:15;142,75
2016-11-23 10:30;149,55
2016-11-23 10:45;169,95
2016-11-23 11:00;185,55
2016-11-23 11:15;190,15
2016-11-23 11:30;197,35
2016-11-23 11:45;195,55
2016-11-23 12:00;188
2016-11-23 12:15;181,5
2016-11-23 12:30;180,75
2016-11-23 12:45;182,9
2016-11-23 13:00;182,6
2016-11-23 13:15;187,6
2016-11-23 13:30;192,05
2016-11-23 13:45;186,35
2016-11-23 14:00;185,2
2016-11-23 14:15;189,15
2016-11-23 14:30;184,2
2016-11-23 14:45;184,05
2016-11-23 15:00;179,05
2016-11-23 15:15;174,95
2016-11-23 15:30;171,4
2016-11-23 15:45;169,75
2016-11-23 16:00;166,55
2016-11-23 16:15;162,5
2016-11-23 16:30;160,1
2016-11-23 16:45;164,35
2016-11-23 17:00;162,3
2016-11-23 17:15;160,8
2016-11-23 17:30;159,95
2016-11-23 17:45;157,65
2016-11-23 18:00;160,15
2016-11-23 18:15;155,5
2016-11-23 18:30;143,85
2016-11-23 18:45;143,1
2016-11-23 19:00;142,65
2016-11-23 19:15;127,75
2016-11-23 19:30;121,35
2016-11-23 19:45;122,75
2016-11-23 20:00;121,15
2016-11-23 20:15;117,25
2016-11-23 20:30;112,65
2016-11-23 20:45;109,6
2016-11-23 21:00;108,3
2016-11-23 21:15;103,65
2016-11-23 21:30;103
2016-11-23 21:45;98,6
2016-11-23 22:00;93,3
2016-11-23 22:15;97,9
2016-11-23 22:30;94,8
2016-11-23 22:45;91
2016-11-23 23:00;92
2016-11-23 23:15;87,6
2016-11-23 23:30;88,3
2016-11-23 23:45;90,15
2016-11-24 00:00;86,7
2016-11-24 00:15;86,35
2016-11-24 00:30;88,1
2016-11-24 00:45;80,55
2016-11-24 01:00;77,85
2016-11-24 01:15;77,8
2016-11-24 01:30;77,9
2016-11-24 01:45;77,8
2016-11-24 02:00;77,5
2016-11-24 02:15;78,9
2016-11-24 02:30;77,75
2016-11-24 02:45;78,15
2016-11-24 03:00;78,9
2016-11-24 03:15;78
2016-11-24 03:30;78,1
2016-11-24 03:45;79,8
2016-11-24 04:00;79,55
2016-11-24 04:15;78,3
2016-11-24 04:30;78,15
2016-11-24 04:45;80
2016-11-24 05:00;78,35
2016-11-24 05:15;80,2
2016-11-24 05:30;82,05
2016-11-24 05:45;81,6
2016-11-24 06:00;84,4
2016-11-24 06:15;91,7
2016-11-24 06:30;90,05
2016-11-24 06:45;89,65
2016-11-24 07:00;87,1
2016-11-24 07:15;82,6
2016-11-24 07:30;86
2016-11-24 07:45;91,45
2016-11-24 08:00;95,2
2016-11-24 08:15;99,35
2016-11-24 08:30;108,8
2016-11-24 08:45;130,2
2016-11-24 09:00;137,85
2016-11-24 09:15;142,55
2016-11-24 09:30;145,9
2016-11-24 09:45;174,45
2016-11-24 10:00;187,45
2016-11-24 10:15;187,6
2016-11-24 10:30;184,5
2016-11-24 10:45;192,25
2016-11-24 11:00;183,65
2016-11-24 11:15;179,55
2016-11-24 11:30;183,85
2016-11-24 11:45;193,7
2016-11-24 12:00;182,95
2016-11-24 12:15;192,95
2016-11-24 12:30;201,4
2016-11-24 12:45;200,5
2016-11-24 13:00;197,45
2016-11-24 13:15;201,2
2016-11-24 13:30;201,55
2016-11-24 13:45;202,05
2016-11-24 14:00;206,95
2016-11-24 14:15;197,9
2016-11-24 14:30;208
2016-11-24 14:45;196,6
2016-11-24 15:00;194,6
2016-11-24 15:15;180,75
2016-11-24 15:30;180,65
2016-11-24 15:45;171,15
2016-11-24 16:00;162,85
2016-11-24 16:15;158,45
2016-11-24 16:30;164,15
2016-11-24 16:45;150,25
2016-11-24 17:00;154,85
2016-11-24 17:15;156,6
2016-11-24 17:30;151,1
2016-11-24 17:45;149,3
2016-11-24 18:00;148,8
2016-11-24 18:15;145,15
2016-11-24 18:30;144,55
2016-11-24 18:45;138,9
2016-11-24 19:00;137,3
2016-11-24 19:15;141,8
2016-11-24 19:30;131,1
2016-11-24 19:45;131,75
2016-11-24 20:00;129,65
2016-11-24 20:15;125,7
2016-11-24 20:30;121,2
2016-11-24 20:45;118,15
2016-11-24 21:00;111,85
2016-11-24 21:15;112,6
2016-11-24 21:30;109,05
2016-11-24 21:45;102,45
2016-11-24 22:00;102,45
2016-11-24 22:15;104,25
2016-11-24 22:30;100,8
2016-11-24 22:45;100,15
2016-11-24 23:00;97,35
2016-11-24 23:15;90,6
2016-11-24 23:30;86,5
2016-11-24 23:45;85,4
2016-11-25 00:00;83,4
2016-11-25 00:15;86,1
2016-11-25 00:30;88,95
2016-11-25 00:45;89,5
2016-11-25 01:00;88,6
2016-11-25 01:15;90
2016-11-25 01:30;89,2
2016-11-25 01:45;90,75
2016-11-25 02:00;90,75
2016-11-25 02:15;83,9
2016-11-25 02:30;84,05
2016-11-25 02:45;82,75
2016-11-25 03:00;82,55
2016-11-25 03:15;84,25
2016-11-25 03:30;83,15
2016-11-25 03:45;83,2
2016-11-25 04:00;83,3
2016-11-25 04:15;84
2016-11-25 04:30;82,9
2016-11-25 04:45;83,4
2016-11-25 05:00;81,45
2016-11-25 05:15;88,45
2016-11-25 05:30;97,85
2016-11-25 05:45;99,95
2016-11-25 06:00;105,25
2016-11-25 06:15;102,8
2016-11-25 06:30;105,45
2016-11-25 06:45;110,4
2016-11-25 07:00;95,9
2016-11-25 07:15;99,15
2016-11-25 07:30;96,25
2016-11-25 07:45;104,2
2016-11-25 08:00;105,55
2016-11-25 08:15;124,55
2016-11-25 08:30;121,9
2016-11-25 08:45;137,95
2016-11-25 09:00;130,15
2016-11-25 09:15;135,8
2016-11-25 09:30;146,05
2016-11-25 09:45;143,15
2016-11-25 10:00;148,95
2016-11-25 10:15;155,85
2016-11-25 10:30;156,6
2016-11-25 10:45;155,2
2016-11-25 11:00;166,3
2016-11-25 11:15;166,4
2016-11-25 11:30;164,6
2016-11-25 11:45;159,15
2016-11-25 12:00;160,85
2016-11-25 12:15;160
2016-11-25 12:30;166,5
2016-11-25 12:45;164,35
2016-11-25 13:00;158,9
2016-11-25 13:15;161,2
2016-11-25 13:30;170,9
2016-11-25 13:45;160,3
2016-11-25 14:00;160,85
2016-11-25 14:15;160,5
2016-11-25 14:30;162,6
2016-11-25 14:45;163,2
2016-11-25 15:00;155,25
2016-11-25 15:15;157,05
2016-11-25 15:30;161,6
2016-11-25 15:45;162
2016-11-25 16:00;163,6
2016-11-25 16:15;158,35
2016-11-25 16:30;153,25
2016-11-25 16:45;149,4
2016-11-25 17:00;146,85
2016-11-25 17:15;142,25
2016-11-25 17:30;153,5
2016-11-25 17:45;144,65
2016-11-25 18:00;140,05
2016-11-25 18:15;139
2016-11-25 18:30;133,85
2016-11-25 18:45;140,15
2016-11-25 19:00;141,5
2016-11-25 19:15;129,95
2016-11-25 19:30;133
2016-11-25 19:45;131,2
2016-11-25 20:00;126,45
2016-11-25 20:15;126,5
2016-11-25 20:30;116,9
2016-11-25 20:45;113,6
2016-11-25 21:00;113,55
2016-11-25 21:15;108,1
2016-11-25 21:30;109,2
2016-11-25 21:45;106,1
2016-11-25 22:00;100,1
2016-11-25 22:15;106,65
2016-11-25 22:30;103,6
2016-11-25 22:45;100,35
2016-11-25 23:00;102,95
2016-11-25 23:15;98,4
2016-11-25 23:30;91,2
2016-11-25 23:45;88,7
2016-11-26 00:00;88,8
2016-11-26 00:15;86,85
2016-11-26 00:30;86,55
2016-11-26 00:45;86,5
2016-11-26 01:00;84,5
2016-11-26 01:15;85,9
2016-11-26 01:30;85,1
2016-11-26 01:45;84,8
2016-11-26 02:00;84,3
2016-11-26 02:15;84,2
2016-11-26 02:30;82,4
2016-11-26 02:45;82,05
2016-11-26 03:00;81,4
2016-11-26 03:15;82,75
2016-11-26 03:30;82,35
2016-11-26 03:45;82,3
2016-11-26 04:00;81,9
2016-11-26 04:15;81,95
2016-11-26 04:30;80,6
2016-11-26 04:45;82,9
2016-11-26 05:00;86,4
2016-11-26 05:15;93,5
2016-11-26 05:30;100,25
2016-11-26 05:45;103,45
2016-11-26 06:00;109,95
2016-11-26 06:15;102,95
2016-11-26 06:30;89,2
2016-11-26 06:45;93
2016-11-26 07:00;81,75
2016-11-26 07:15;89,45
2016-11-26 07:30;81,4
2016-11-26 07:45;81,75
2016-11-26 08:00;83,25
2016-11-26 08:15;75,1
2016-11-26 08:30;82,8
2016-11-26 08:45;81,4
2016-11-26 09:00;80,4
2016-11-26 09:15;85,55
2016-11-26 09:30;78,45
2016-11-26 09:45;76,55
2016-11-26 10:00;74,45
2016-11-26 10:15;77,9
2016-11-26 10:30;74,25
2016-11-26 10:45;78,3
2016-11-26 11:00;82,65
2016-11-26 11:15;82,85
2016-11-26 11:30;83,1
2016-11-26 11:45;81,4
2016-11-26 12:00;92,3
2016-11-26 12:15;85,9
2016-11-26 12:30;92,95
2016-11-26 12:45;89,25
2016-11-26 13:00;93,2
2016-11-26 13:15;88,75
2016-11-26 13:30;93,3
2016-11-26 13:45;78,9
2016-11-26 14:00;84,75
2016-11-26 14:15;78,95
2016-11-26 14:30;85,75
2016-11-26 14:45;86,35
2016-11-26 15:00;98,3
2016-11-26 15:15;97,3
2016-11-26 15:30;101,75
2016-11-26 15:45;104,45
2016-11-26 16:00;101,3
2016-11-26 16:15;106,15
2016-11-26 16:30;106,05
2016-11-26 16:45;110
2016-11-26 17:00;110,5
2016-11-26 17:15;112,35
2016-11-26 17:30;111,15
2016-11-26 17:45;108,45
2016-11-26 18:00;105,3
2016-11-26 18:15;106,45
2016-11-26 18:30;107,35
2016-11-26 18:45;113,2
2016-11-26 19:00;104,9
2016-11-26 19:15;106,4
2016-11-26 19:30;109
2016-11-26 19:45;113
2016-11-26 20:00;110,1
2016-11-26 20:15;113,85
2016-11-26 20:30;111,2
2016-11-26 20:45;109,45
2016-11-26 21:00;113,35
2016-11-26 21:15;117,55
2016-11-26 21:30;116,55
2016-11-26 21:45;115,8
2016-11-26 22:00;111,15
2016-11-26 22:15;115,75
2016-11-26 22:30;104,15
2016-11-26 22:45;101,25
2016-11-26 23:00;102,05
2016-11-26 23:15;99,85
2016-11-26 23:30;100,1
2016-11-26 23:45;97,65
2016-11-27 00:00;98,45
2016-11-27 00:15;96,4
2016-11-27 00:30;95,55
2016-11-27 00:45;95,1
2016-11-27 01:00;94,85
2016-11-27 01:15;95,2
2016-11-27 01:30;96,15
2016-11-27 01:45;95,55
2016-11-27 02:00;95,95
2016-11-27 02:15;94,95
2016-11-27 02:30;93,95
2016-11-27 02:45;94,45
2016-11-27 03:00;94,6
2016-11-27 03:15;95,35
2016-11-27 03:30;94,2
2016-11-27 03:45;93,7
2016-11-27 04:00;94,75
2016-11-27 04:15;94,3
2016-11-27 04:30;95,5
2016-11-27 04:45;94,6
2016-11-27 05:00;96,8
2016-11-27 05:15;101,7
2016-11-27 05:30;109,4
2016-11-27 05:45;111,1
2016-11-27 06:00;113,5
2016-11-27 06:15;108,7
2016-11-27 06:30;109,7
2016-11-27 06:45;109,7
2016-11-27 07:00;115,85
2016-11-27 07:15;108,55
2016-11-27 07:30;105,1
2016-11-27 07:45;104,45
2016-11-27 08:00;100,15
2016-11-27 08:15;100,55
2016-11-27 08:30;97
2016-11-27 08:45;90,75
2016-11-27 09:00;94,35
2016-11-27 09:15;87,85
2016-11-27 09:30;94,1
2016-11-27 09:45;88
2016-11-27 10:00;89,4
2016-11-27 10:15;90
2016-11-27 10:30;89,1
2016-11-27 10:45;98,1
2016-11-27 11:00;97,6
2016-11-27 11:15;89,2
2016-11-27 11:30;93,5
2016-11-27 11:45;92,3
2016-11-27 12:00;101,8
2016-11-27 12:15;89,95
2016-11-27 12:30;95,55
2016-11-27 12:45;91,1
2016-11-27 13:00;92,7
2016-11-27 13:15;98,7
2016-11-27 13:30;94,4
2016-11-27 13:45;95
2016-11-27 14:00;96,95
2016-11-27 14:15;100,85
2016-11-27 14:30;99,5
2016-11-27 14:45;101,6
2016-11-27 15:00;101,4
2016-11-27 15:15;111,1
2016-11-27 15:30;110,15
2016-11-27 15:45;110,2
2016-11-27 16:00;104,7
2016-11-27 16:15;101,1
2016-11-27 16:30;102,95
2016-11-27 16:45;101,55
2016-11-27 17:00;101,4
2016-11-27 17:15;100,55
2016-11-27 17:30;107,9
2016-11-27 17:45;112
2016-11-27 18:00;110,7
2016-11-27 18:15;108,7
2016-11-27 18:30;107,55
2016-11-27 18:45;111,35
2016-11-27 19:00;112
2016-11-27 19:15;110
2016-11-27 19:30;111,85
2016-11-27 19:45;112,55
2016-11-27 20:00;109,15
2016-11-27 20:15;111
2016-11-27 20:30;116,25
2016-11-27 20:45;116,15
2016-11-27 21:00;116,05
2016-11-27 21:15;117,3
2016-11-27 21:30;113,65
2016-11-27 21:45;107,45
2016-11-27 22:00;103,2
2016-11-27 22:15;110,05
2016-11-27 22:30;109
2016-11-27 22:45;105,8
2016-11-27 23:00;104,1
2016-11-27 23:15;99,65
2016-11-27 23:30;99,95
2016-11-27 23:45;99,05

